This is the latest recevied weather packets stored in our database for station/object 4S6DRJ-13. If no packets are shown the sender has not sent any weather packets the latest 10 day(s).
| Time | Temp. | Humidity | Pressure | Rain* | Wind** | Luminosity | Snow |
|---|---|---|---|---|---|---|---|
| 1787718782 | 28.89° C | 81% | 1012 hPa | 0 mm | 3.58 m/s, 206° | 615 W/m² | - |
| 1787718722 | 28.89° C | 82% | 1011.9 hPa | 0 mm | 2.68 m/s, 212° | 478 W/m² | - |
| 1787718661 | 28.89° C | 82% | 1011.9 hPa | 0 mm | 0.89 m/s, 170° | 517 W/m² | - |
| 1787718599 | 28.33° C | 82% | 1011.9 hPa | 0 mm | 2.24 m/s, 241° | 506 W/m² | - |
| 1787718538 | 28.33° C | 82% | 1011.8 hPa | 0 mm | 0.45 m/s, 186° | 448 W/m² | - |
| 1787718478 | 28.89° C | 82% | 1011.9 hPa | 0 mm | 2.68 m/s, 65° | 572 W/m² | - |
| 1787718417 | 28.89° C | 81% | 1011.9 hPa | 0 mm | 3.58 m/s, 243° | 363 W/m² | - |
| 1787718356 | 28.89° C | 81% | 1011.9 hPa | 0 mm | 2.68 m/s, 220° | 303 W/m² | - |
| 1787718294 | 28.89° C | 81% | 1011.9 hPa | 0 mm | 1.34 m/s, 249° | 240 W/m² | - |
| 1787718233 | 28.89° C | 81% | 1011.9 hPa | 0 mm | 1.79 m/s, 79° | 250 W/m² | - |
| 1787718173 | 28.89° C | 80% | 1012.1 hPa | 0 mm | 3.13 m/s, 204° | 287 W/m² | - |
| 1787718112 | 28.89° C | 80% | 1011.9 hPa | 0 mm | 2.68 m/s, 216° | 295 W/m² | - |
| 1787718050 | 28.89° C | 81% | 1012.1 hPa | 0 mm | 3.58 m/s, 188° | 291 W/m² | - |
| 1787717989 | 28.89° C | 82% | 1011.8 hPa | 0 mm | 0.89 m/s, 44° | 264 W/m² | - |
| 1787717928 | 28.89° C | 81% | 1011.9 hPa | 0 mm | 2.24 m/s, 244° | 349 W/m² | - |
| 1787717867 | 28.89° C | 81% | 1012.1 hPa | 0 mm | 0.89 m/s, 265° | 535 W/m² | - |
| 1787717806 | 28.89° C | 81% | 1012 hPa | 0 mm | 2.24 m/s, 241° | 632 W/m² | - |
| 1787717745 | 28.89° C | 81% | 1012.1 hPa | 0 mm | 2.24 m/s, 324° | 496 W/m² | - |
| 1787717684 | 28.89° C | 81% | 1012 hPa | 0 mm | 3.13 m/s, 129° | 572 W/m² | - |
| 1787717623 | 28.89° C | 81% | 1012 hPa | 0 mm | 1.34 m/s, 231° | 413 W/m² | - |
| 1787717562 | 28.89° C | 81% | 1011.9 hPa | 0 mm | 3.13 m/s, 259° | 343 W/m² | - |
| 1787717501 | 28.89° C | 81% | 1012.2 hPa | 0 mm | 1.34 m/s, 142° | 302 W/m² | - |
| 1787717440 | 28.89° C | 80% | 1012.1 hPa | 0 mm | 2.68 m/s, 232° | 316 W/m² | - |
| 1787717379 | 28.89° C | 80% | 1012.2 hPa | 0 mm | 2.24 m/s, 235° | 350 W/m² | - |
| 1787717319 | 28.89° C | 81% | 1012.1 hPa | 0 mm | 2.24 m/s, 243° | 371 W/m² | - |
* Rain latest hour (hover to see other rain measurements)
** Current wind speed in m/s (hover to see current wind gust speed)